RH
88 88 85 86 96 101 97 99 101 97 97 98 97 96 97 97 94 94 95 92 91 84 72 71 77 78 73 74 77 74 67 63 62 63 71 76 76 82 85 82 83 79 75 80 82 76 65 45 32 30 28 25 22 20 21 16 12 18 18 17 33 43 34 28 30 28 22 20 23 21 16 15 17 17 17 19 19 20 21 27 35 38 40 45 40 36 52
88 88 85 83 92 100 98 99 100 97 96 100 100 98 99 100 99 99 93 87 90 86 76 77 78 73 75 76 71 68 64 59 60 64 71 76 79 89 91 82 79 80 77 79 79 72 66 54 42 38 33 27 25 21 18 17 15 17 21 23 30 33 30 28 31 34 30 25 28 25 19 18 19 19 19 16 18 28 35 39 37 29 33 37 27 32 59
89 90 87 78 79 91 100 100 99 97 93 95 99 99 99 99 98 99 95 89 92 91 87 93 90 77 78 81 74 71 69 66 65 67 72 78 81 86 86 76 73 74 71 75 76 69 68 65 55 50 44 40 37 25 15 19 17 15 22 24 22 29 37 33 30 37 37 34 37 35 27 23 20 20 20 16 21 30 32 36 32 26 39 42 24 36 74
89 90 86 75 70 84 98 100 98 96 90 89 94 97 97 97 95 96 96 95 97 96 92 97 98 89 86 85 78 78 81 77 75 75 76 78 81 85 83 74 70 69 69 77 77 68 70 70 64 61 54 49 49 34 18 17 17 20 27 25 29 45 46 33 31 36 32 28 35 36 28 24 22 22 20 16 21 28 32 35 30 29 45 46 35 56 91
88 88 83 74 73 86 96 99 98 96 92 89 91 95 97 97 96 95 96 96 98 98 95 94 92 89 89 90 86 85 86 82 80 81 82 83 86 88 83 74 72 73 76 85 83 74 73 72 69 69 60 55 60 50 31 18 15 27 32 24 35 47 38 33 37 35 29 27 33 37 31 23 22 23 23 20 23 32 36 36 37 40 38 36 53 76 86
86 88 84 76 80 92 97 99 98 94 95 94 91 95 97 96 97 98 97 97 94 91 89 86 83 83 84 88 89 85 83 83 82 82 86 89 89 90 87 78 73 70 72 82 85 78 75 73 73 73 67 65 64 53 43 32 25 34 33 27 38 37 27 39 42 31 34 40 44 50 48 40 34 28 24 24 28 34 34 33 43 45 27 29 65 79 66
86 89 87 82 89 99 98 99 99 94 93 93 91 95 97 94 96 97 97 97 93 89 87 84 83 84 83 84 86 86 86 84 80 80 86 89 85 86 90 82 70 64 63 72 83 81 72 70 75 77 74 76 70 56 52 50 45 43 34 34 45 34 28 49 46 33 50 64 64 68 67 63 59 52 43 32 29 34 32 32 44 44 33 43 73 79 66
88 91 91 89 95 100 97 96 99 96 92 91 92 97 99 98 98 97 98 99 96 96 96 91 87 86 85 85 81 82 86 82 77 78 82 86 83 82 87 84 75 70 65 65 73 74 69 69 74 75 73 75 75 65 59 57 56 47 33 37 43 30 39 62 48 35 60 76 75 75 72 69 69 75 75 52 31 32 28 30 44 44 42 59 77 84 81
90 90 91 93 95 98 98 95 96 98 96 95 97 99 100 100 99 99 100 98 92 96 99 94 90 87 85 85 82 80 82 80 80 80 76 78 80 76 78 81 78 77 73 68 65 62 62 64 64 65 69 71 71 67 64 64 61 48 37 42 40 28 48 70 48 36 59 73 74 73 71 69 66 76 85 61 38 39 36 38 50 43 44 67 75 73 76
91 87 90 94 93 95 98 96 96 98 99 99 99 100 100 99 98 99 101 96 89 93 98 96 96 92 83 81 81 79 78 76 82 88 81 76 78 75 76 80 83 85 82 76 71 68 68 69 67 71 77 76 71 70 70 70 69 59 47 47 47 40 50 61 45 36 53 70 74 68 59 56 55 66 82 74 64 65 53 52 61 49 45 60 55 46 60
91 86 88 92 93 95 98 99 98 97 98 100 100 99 100 100 99 98 100 98 90 92 96 94 94 90 80 78 78 77 78 77 81 90 85 77 81 84 83 84 89 90 85 81 80 77 74 75 77 84 86 81 79 79 75 70 71 70 57 50 54 51 47 56 52 40 50 71 77 67 55 52 60 75 86 84 82 78 62 61 73 67 62 66 57 55 71
91 86 87 89 92 95 97 99 100 99 99 100 100 100 100 99 100 99 99 98 90 88 91 89 85 81 76 77 78 76 79 79 80 86 84 79 82 85 83 84 88 86 81 82 78 69 66 73 80 85 81 75 75 74 70 68 70 74 65 53 53 51 47 61 64 49 53 70 68 57 54 58 70 82 84 81 84 83 78 82 88 85 85 85 76 75 82
92 87 87 90 92 96 97 98 99 99 99 98 99 100 100 99 100 99 100 99 91 88 90 86 81 81 80 82 82 80 80 81 82 86 86 85 85 84 84 85 83 78 77 78 73 67 71 77 81 83 75 66 65 62 62 67 70 72 69 53 46 50 50 57 63 55 56 61 54 49 57 66 77 85 86 86 91 90 81 77 80 84 86 84 78 77 78
98 94 94 96 96 97 98 99 100 99 98 97 98 99 98 100 100 99 100 100 91 87 91 90 86 88 89 88 88 88 86 86 88 89 88 89 88 85 84 81 75 73 75 77 77 77 76 73 75 81 75 67 67 63 61 68 69 70 73 58 44 47 49 49 55 60 60 59 54 52 58 68 80 87 89 89 91 89 73 57 65 80 82 79 80 81 80
100 99 97 98 97 96 96 98 100 100 99 98 99 99 98 98 100 100 100 100 94 88 90 91 89 92 95 92 91 94 92 89 91 90 89 92 91 84 80 76 72 74 77 82 88 85 75 72 76 79 75 70 69 64 65 72 69 66 73 66 49 48 50 43 43 55 63 61 56 53 52 53 60 71 81 83 81 82 70 54 62 80 80 77 81 83 85
100 99 95 96 98 96 94 96 96 97 100 100 99 100 100 98 98 100 99 100 98 90 85 85 87 93 97 95 93 96 96 93 94 93 91 90 88 85 84 79 77 81 85 90 94 84 72 75 79 76 73 71 65 62 67 73 67 61 62 59 51 53 56 48 43 56 66 57 50 54 55 51 56 66 78 82 78 77 69 53 55 74 82 80 80 83 89
99 97 94 94 95 92 92 95 90 87 94 100 99 99 101 99 99 100 98 99 99 90 80 82 90 96 98 98 95 96 97 96 96 97 95 89 85 88 92 88 84 86 88 89 91 83 76 82 85 78 76 75 65 59 66 71 70 67 63 58 55 54 54 51 49 58 63 53 47 53 53 55 67 77 81 82 75 71 64 48 48 69 83 80 80 85 88
95 93 93 93 87 83 86 86 77 75 86 97 99 99 100 99 99 100 99 99 100 91 81 86 97 98 95 95 95 94 96 97 96 97 95 89 88 92 94 92 91 93 91 89 88 85 82 87 88 75 71 77 71 59 60 64 68 74 75 71 66 60 55 54 53 56 59 53 50 52 48 54 73 84 85 83 71 62 58 48 51 72 83 80 81 83 84
93 90 90 83 69 65 68 65 59 64 78 91 98 98 98 99 100 100 99 100 100 91 80 83 93 91 86 90 93 93 95 96 97 99 94 85 87 92 93 92 93 95 96 92 89 86 81 86 93 82 70 77 79 68 63 67 73 80 78 70 66 64 59 57 56 59 59 53 51 52 48 56 77 88 84 75 63 57 56 55 63 77 81 80 81 81 81
92 87 81 67 51 48 51 49 50 59 70 82 94 96 91 93 99 101 99 100 102 94 81 79 86 88 87 91 93 94 97 97 98 101 95 85 87 91 93 95 92 91 93 92 89 87 78 78 91 87 75 81 88 78 73 78 82 80 73 66 65 60 52 52 58 62 62 62 63 58 50 58 76 80 74 68 62 59 63 70 80 83 79 79 82 81 82
88 80 69 57 45 41 42 42 47 57 64 73 86 92 88 87 95 101 100 98 102 98 83 77 81 84 85 86 85 87 94 93 92 97 95 88 87 86 86 89 89 88 91 87 82 81 77 78 88 88 82 88 89 76 71 75 78 76 75 76 73 60 50 51 57 58 57 58 60 62 67 76 79 74 72 72 67 63 67 77 86 85 81 81 82 81 83
81 69 59 52 45 39 37 38 44 53 60 64 73 84 85 81 87 98 100 99 102 97 80 72 74 72 70 74 74 74 79 79 79 86 91 89 86 84 83 84 83 83 84 77 70 72 78 84 88 85 84 89 87 80 77 73 70 75 78 74 70 67 65 61 61 68 71 66 65 75 86 90 85 80 79 76 68 62 63 73 84 87 85 85 84 84 85
69 60 52 48 44 37 34 36 41 49 55 59 65 74 76 72 76 89 96 99 100 88 68 60 64 60 55 60 64 64 67 72 73 76 83 87 85 81 82 84 79 76 77 74 74 80 86 87 81 75 79 85 82 80 80 74 72 79 80 75 78 85 83 72 71 81 83 79 84 91 89 84 82 81 79 73 68 65 64 73 86 89 85 86 86 85 86
59 54 47 44 41 35 32 34 40 46 52 57 61 66 67 65 68 82 95 101 100 88 69 56 54 51 49 53 57 57 58 63 67 69 76 84 79 70 71 75 73 71 72 71 74 79 81 81 80 76 80 84 76 69 71 73 76 79 78 78 84 87 83 80 80 74 63 67 86 93 86 85 85 79 75 75 74 72 71 77 86 88 87 87 86 85 86
54 50 43 40 38 32 30 33 38 46 53 56 57 61 61 60 67 82 97 101 100 98 91 71 51 43 46 48 49 49 50 53 58 64 70 74 70 61 62 67 69 70 70 67 68 70 70 74 79 77 78 79 74 68 71 74 74 73 72 75 81 81 77 79 83 78 69 74 88 91 87 88 85 76 74 78 79 80 82 82 84 87 88 86 85 86 87
51 47 41 38 34 30 29 32 38 47 53 55 57 58 56 63 77 88 95 98 98 99 100 83 53 37 41 44 40 41 44 45 48 55 60 61 61 61 64 67 67 69 71 70 69 69 68 71 75 76 76 75 70 69 73 74 72 73 74 77 80 81 79 77 78 81 80 80 84 85 82 81 81 78 75 76 79 84 87 86 86 87 87 87 88 88 84
49 46 40 36 32 28 27 30 38 48 53 55 57 55 57 75 90 87 85 92 90 83 86 83 59 38 35 37 35 36 39 40 43 50 54 57 61 65 70 73 72 72 76 76 71 66 65 69 75 79 80 76 71 72 76 75 72 74 78 82 82 82 83 80 73 68 65 67 75 78 72 69 75 76 72 74 82 87 87 88 88 87 86 87 87 85 81
47 44 40 34 30 26 26 30 40 50 54 55 55 55 65 85 91 80 79 89 88 82 87 87 69 48 38 33 31 34 37 38 40 46 50 54 60 66 73 78 79 79 79 77 71 65 64 68 74 77 75 72 70 73 75 74 72 74 80 85 85 83 83 79 66 59 62 69 75 76 71 71 76 77 74 79 86 88 87 88 88 86 86 85 84 83 82
47 43 38 33 28 25 25 30 42 52 54 54 55 56 65 81 86 76 75 84 89 92 96 88 68 53 44 35 28 29 34 36 38 41 46 50 56 63 71 77 80 80 78 73 69 68 67 69 72 73 72 71 69 70 74 76 78 81 85 89 91 90 89 82 72 69 75 79 77 74 73 75 78 79 81 86 90 89 88 87 87 87 87 85 82 81 80
47 42 36 30 26 23 24 31 43 52 53 53 56 55 55 67 78 75 72 77 83 87 93 91 73 52 40 33 28 27 30 33 35 37 41 45 50 56 64 71 76 79 75 70 68 68 68 70 71 72 74 74 69 69 78 84 84 83 86 92 96 93 87 83 77 74 76 78 76 74 74 76 79 82 86 89 91 90 87 87 88 87 86 85 83 79 78
47 41 33 28 24 22 25 34 45 53 54 53 56 57 54 60 70 70 69 76 79 80 89 94 79 58 45 34 26 26 28 29 31 33 35 39 44 48 52 58 64 67 68 68 69 68 66 68 71 72 73 73 71 72 79 82 81 82 87 94 97 92 84 81 78 74 74 75 76 77 79 81 82 85 88 90 91 90 87 87 88 87 85 85 83 79 78
46 40 31 26 22 22 29 39 47 53 54 52 54 58 60 61 66 68 69 74 77 81 90 91 83 79 73 49 26 24 27 26 28 31 31 33 38 40 42 46 50 53 56 61 67 69 66 67 71 69 69 75 82 85 85 82 82 86 92 96 95 89 82 80 79 77 76 74 74 78 86 88 85 83 86 90 91 90 88 87 87 86 85 85 83 81 80
43 38 29 22 22 26 35 46 51 52 53 52 55 61 63 63 65 67 67 70 74 81 89 93 92 93 80 49 26 24 26 25 26 28 29 30 33 36 39 42 43 46 48 53 62 66 62 62 65 63 62 72 82 86 90 94 93 92 96 99 96 89 84 83 82 81 79 74 70 72 79 83 82 81 83 89 92 91 89 87 87 86 85 84 85 84 83
38 33 24 21 27 35 42 49 52 51 52 54 57 61 63 63 64 62 59 64 74 79 84 93 100 93 69 44 32 28 24 24 27 29 29 30 30 32 37 39 41 46 50 53 60 64 61 63 66 60 56 64 75 81 89 96 96 94 97 98 95 89 86 86 83 79 76 71 68 69 72 77 81 84 87 91 92 91 89 87 86 86 85 85 86 86 85
34 27 22 25 35 42 47 51 51 50 53 57 60 62 61 57 56 55 55 62 70 71 70 80 91 83 63 51 45 33 24 25 29 28 29 29 28 30 36 39 44 51 53 53 58 63 63 66 67 59 53 60 73 85 90 91 92 94 95 94 91 87 85 84 81 79 77 73 71 74 77 79 82 87 91 93 92 91 90 88 86 85 85 86 87 87 86
29 23 25 35 44 47 49 51 52 55 61 63 61 59 55 49 49 55 59 62 66 68 70 75 77 68 56 52 47 35 25 25 27 25 26 29 28 28 33 39 45 50 52 55 59 62 64 64 62 59 59 62 69 80 88 90 92 94 92 89 87 83 79 79 79 80 81 79 77 79 82 82 85 90 93 93 93 91 89 89 87 85 87 90 90 89 87
26 24 33 45 51 50 49 51 57 64 66 62 55 49 47 49 56 62 65 68 69 71 73 73 68 61 56 53 46 35 27 26 27 25 26 31 32 30 32 39 45 47 49 54 58 59 63 69 68 65 68 72 76 83 89 90 90 89 86 84 83 80 77 76 76 77 83 87 86 86 87 87 89 92 93 93 93 92 89 89 89 88 89 92 92 89 88
25 31 44 52 53 52 53 56 62 65 59 50 46 46 49 56 61 62 68 79 83 80 76 70 62 60 59 54 42 31 26 28 31 29 29 32 33 30 31 36 42 46 47 51 56 57 62 75 85 80 76 80 85 86 87 87 86 83 80 79 79 78 76 74 71 73 81 88 90 89 89 90 92 94 93 91 92 92 90 90 90 88 87 88 88 87 86
34 40 50 57 57 56 56 57 58 56 48 43 45 48 51 55 52 47 55 70 80 83 82 73 62 59 59 53 41 30 26 31 35 33 31 31 30 31 34 35 39 46 47 46 49 49 49 62 78 75 67 75 85 85 84 87 86 81 77 75 75 76 75 71 70 70 71 75 80 81 80 82 86 90 92 91 91 92 90 89 89 88 86 85 85 85 84
45 49 54 58 58 57 56 55 52 48 43 43 46 46 45 45 41 37 40 48 54 59 61 55 47 44 44 44 41 33 27 29 32 31 29 28 27 32 37 34 36 46 45 40 47 54 53 60 69 60 51 66 85 86 83 86 83 78 76 73 72 76 75 70 69 69 68 70 76 79 77 75 78 85 90 90 90 92 91 88 88 87 85 84 84 83 83
51 59 61 61 58 54 51 49 49 46 42 41 43 43 40 38 37 37 39 41 41 41 40 38 39 38 35 36 39 34 26 26 28 26 27 27 27 31 35 33 35 41 38 36 51 62 58 61 67 55 46 63 82 84 83 85 81 78 78 73 69 73 76 72 69 69 70 72 76 80 80 78 78 82 86 87 87 89 90 88 87 86 85 84 84 84 83
58 64 67 65 60 55 51 48 46 46 42 39 41 46 47 43 38 36 35 36 38 38 34 34 39 40 35 33 34 31 25 24 22 21 24 25 23 29 37 37 35 35 34 38 51 53 47 52 60 52 49 67 82 82 81 84 79 75 75 70 65 67 72 72 70 70 71 74 76 78 81 81 80 81 84 84 84 86 86 86 86 86 86 87 87 86 85
57 66 73 72 66 59 54 48 43 44 47 47 46 49 49 44 40 41 40 37 37 37 35 35 38 37 33 32 33 29 24 21 19 20 26 27 26 33 40 38 33 32 33 38 43 41 39 48 52 45 51 72 83 80 79 81 77 73 71 68 66 69 72 73 72 71 73 76 77 77 79 82 81 81 82 83 83 84 84 84 85 85 86 87 87 86 85
59 72 81 81 73 60 50 44 41 43 50 54 51 48 46 42 41 46 45 39 36 38 37 38 41 41 38 36 33 27 23 20 18 19 24 29 32 36 35 31 31 33 34 38 43 43 40 43 46 49 61 77 82 79 79 79 75 72 70 67 69 74 76 75 74 73 74 78 79 78 80 82 81 81 82 82 81 82 83 83 84 84 84 85 85 85 85
69 84 86 78 68 55 46 47 48 46 50 54 52 49 48 44 43 46 44 37 37 40 38 38 45 48 44 38 33 28 24 20 18 20 28 33 33 32 29 30 36 40 38 38 42 39 32 33 43 55 67 77 79 78 79 77 73 71 69 69 72 76 77 75 75 75 75 78 80 80 81 81 81 81 82 81 80 80 81 81 82 83 83 83 83 83 83
82 94 87 73 65 56 49 50 53 50 50 52 50 49 49 47 43 44 42 38 39 42 40 40 47 51 45 37 31 26 23 19 19 26 35 33 27 26 29 30 33 36 34 35 38 34 26 27 36 46 57 71 79 79 76 75 73 70 68 68 72 76 77 76 75 76 76 78 80 81 82 81 81 80 81 80 79 79 79 79 79 80 80 81 81 80 80
92 100 87 72 67 62 52 50 54 53 50 47 45 44 46 45 41 42 43 42 43 43 41 41 44 46 42 36 28 24 24 24 23 27 31 27 24 31 34 31 31 34 31 27 31 34 31 29 33 41 54 70 80 78 75 74 73 71 68 65 67 74 78 76 75 76 77 77 79 82 83 82 81 80 80 80 79 78 78 77 77 76 76 77 78 78 78
96 100 88 73 68 62 55 55 57 55 51 49 49 48 46 44 44 44 44 41 39 39 40 42 43 41 37 34 30 28 30 28 24 26 29 25 24 29 30 27 31 37 33 25 26 29 28 30 38 48 62 75 78 74 72 71 71 72 71 66 65 72 78 76 74 76 77 75 76 80 83 83 82 81 81 81 80 78 78 78 77 76 74 73 75 77 76
92 96 92 86 81 73 66 62 60 56 54 54 53 51 50 48 48 46 41 36 35 37 40 43 43 39 36 34 33 32 31 27 24 28 31 27 25 28 28 25 27 29 28 29 32 28 25 33 46 56 67 76 76 68 67 69 71 74 73 67 65 71 76 75 74 77 77 74 75 77 80 82 82 81 80 80 80 79 78 77 77 76 74 71 70 72 72
91 95 96 93 86 77 68 62 59 59 61 61 58 56 55 53 49 45 39 35 34 35 37 41 42 40 38 36 34 33 32 32 31 29 27 26 30 30 24 23 28 28 25 27 32 29 28 39 51 59 68 75 72 65 67 72 74 74 72 67 65 70 75 75 75 77 76 74 73 73 74 75 76 74 74 76 77 77 75 73 73 73 73 70 68 69 69
94 95 92 85 80 76 73 69 66 65 65 64 61 58 57 54 49 43 39 37 36 34 37 45 49 45 38 35 33 30 28 30 33 29 23 25 33 30 20 19 29 32 25 23 30 35 38 45 50 56 65 70 68 66 69 72 70 72 74 71 68 72 75 75 74 74 74 73 73 72 70 70 70 69 69 71 73 73 72 70 70 71 70 68 67 68 67
98 95 85 77 76 76 75 72 70 68 67 65 61 57 54 51 45 38 36 38 39 39 42 49 51 45 38 36 35 30 27 29 32 30 26 26 30 31 27 24 25 24 23 26 32 37 40 44 48 53 60 64 66 68 71 68 66 70 76 74 71 72 74 73 72 72 72 72 73 73 71 70 69 68 67 67 68 69 69 68 68 68 68 67 67 67 66
Wind_Speed
24 26 27 26 26 26 26 27 27 29 27 22 19 16 9 5 5 4 3 8 5 1 1 1 0 2 4 5 4 5 4 3 3 4 3 2 1 1 2 3 2 0 0 2 2 1 1 2 2 2 4 4 3 12 20 19 16 10 5 5 5 3 3 4 4 2 2 1 1 1 7 8 6 7 6 6 6 6 5 2 4 4 3 2 2 2 1
24 25 26 26 25 24 24 25 26 28 25 20 17 14 7 5 5 4 5 7 4 1 2 1 0 2 4 4 5 5 4 4 4 3 2 1 2 2 1 2 3 3 2 2 2 2 1 1 1 1 2 1 4 16 23 19 14 10 7 6 7 4 2 4 6 6 5 5 4 4 7 9 8 7 8 8 6 4 3 2 3 5 7 7 6 3 2
24 24 26 27 26 22 22 23 25 26 22 18 15 11 6 4 3 4 5 6 4 1 3 3 2 2 3 4 5 4 3 3 4 4 3 2 1 1 2 3 4 4 3 2 2 1 0 1 1 2 1 1 2 13 24 19 12 11 13 13 10 4 2 4 6 7 9 9 7 6 5 5 5 7 11 11 10 9 6 4 5 7 6 8 8 4 2
24 24 26 30 27 22 20 21 24 24 20 17 15 10 5 2 2 2 4 5 5 5 6 5 3 3 3 3 3 2 1 2 4 4 4 3 2 2 3 4 4 3 2 2 2 1 1 2 2 3 1 1 2 7 19 20 14 13 16 17 11 1 1 4 4 5 7 5 3 2 4 6 6 8 13 12 11 10 6 4 6 6 5 6 7 4 6
23 24 27 31 28 22 20 20 22 22 19 16 14 10 6 2 1 1 1 3 5 6 7 6 4 3 3 3 3 2 2 3 2 2 1 2 2 3 4 4 3 1 0 0 1 1 1 2 2 3 1 0 3 3 10 14 16 15 15 17 10 1 3 5 4 4 3 2 4 3 5 9 9 9 11 11 9 8 8 7 5 5 5 6 4 7 7
22 24 28 30 27 22 21 21 21 21 20 16 13 10 7 4 2 1 1 1 2 3 4 5 5 5 4 3 3 4 4 4 1 1 1 1 2 3 2 3 5 4 2 0 1 1 0 1 1 1 1 1 2 3 4 4 10 12 12 12 7 2 4 4 3 4 2 3 2 3 3 4 5 6 10 11 11 11 13 10 6 7 7 5 6 10 9
22 24 28 28 24 22 22 20 20 20 19 16 14 11 7 5 3 3 4 4 4 6 5 4 5 5 4 3 3 4 4 4 2 1 0 2 3 5 3 2 2 5 5 1 1 1 1 1 1 2 2 1 1 3 4 2 4 7 8 7 3 2 4 4 4 4 4 3 2 1 3 3 2 3 6 9 12 13 13 9 7 9 7 1 8 13 8
22 23 27 26 23 22 23 20 18 19 18 17 15 12 9 6 4 5 7 6 7 7 5 4 4 4 3 3 3 3 5 5 3 1 3 2 1 5 4 4 4 1 3 4 3 3 1 1 1 2 2 2 2 1 2 2 3 6 7 5 2 3 3 2 4 3 3 3 3 1 5 4 3 2 3 6 10 12 13 10 7 9 7 3 7 9 4
22 23 26 26 22 22 23 20 19 18 18 17 14 11 11 9 6 6 7 5 4 4 2 3 3 3 3 3 3 3 4 4 4 4 5 6 5 4 2 6 7 3 2 4 5 6 4 4 3 2 2 2 2 1 0 1 4 6 6 4 3 4 2 2 3 4 2 1 1 3 6 5 3 3 4 7 9 8 8 7 5 8 7 6 7 6 4
22 23 25 25 21 21 22 21 20 18 18 16 13 12 13 13 11 8 5 4 3 3 2 2 3 2 3 4 4 3 4 4 5 5 4 5 6 6 3 5 5 3 1 1 3 6 7 8 8 6 5 5 5 4 3 1 2 4 4 3 2 4 4 3 4 5 3 2 3 3 5 3 3 3 4 7 5 3 3 3 3 7 7 7 6 5 4
22 22 24 24 22 20 20 20 21 19 17 15 13 13 14 13 12 10 5 3 3 2 1 2 3 1 2 4 5 6 8 7 5 4 3 3 1 2 2 5 4 3 3 2 3 9 11 10 9 7 4 3 4 3 2 0 2 1 2 2 2 5 6 3 3 3 3 3 3 3 4 4 2 2 4 5 3 3 5 4 3 4 3 2 1 2 9
21 21 21 22 22 20 19 18 19 19 17 14 12 13 13 11 11 8 4 3 3 2 2 4 5 5 8 9 8 9 10 10 9 8 8 8 8 8 6 3 1 2 3 5 9 13 11 6 4 4 2 1 3 3 3 3 2 4 2 2 4 6 5 2 1 2 3 2 2 4 5 3 1 2 4 5 4 3 2 1 3 3 2 1 2 7 13
20 19 19 20 21 20 19 18 19 18 17 15 13 14 14 11 9 8 5 4 4 3 3 7 9 10 11 10 9 10 12 12 12 12 12 11 13 13 8 6 6 4 4 10 13 10 4 2 2 2 2 1 2 2 4 4 1 3 2 2 5 6 5 3 2 1 2 3 4 4 2 1 3 3 4 5 4 5 4 2 5 7 5 5 6 9 12
20 19 18 18 20 19 18 17 18 18 17 16 15 15 13 10 8 8 5 3 3 5 6 7 7 7 8 7 7 8 9 9 10 11 12 12 13 14 12 11 12 11 8 9 8 4 1 0 1 1 0 2 1 2 2 2 1 1 2 1 4 5 5 4 2 0 1 2 3 1 2 1 3 4 5 6 6 7 6 3 5 8 7 7 7 11 14
20 20 18 18 19 19 17 15 15 16 16 15 16 15 12 9 9 7 4 4 5 6 5 4 3 5 6 6 5 4 5 5 6 7 9 10 12 15 15 15 14 11 7 4 2 1 1 1 2 3 2 2 3 2 1 1 1 2 2 2 4 3 2 3 3 2 1 1 2 2 3 3 2 1 5 7 6 5 3 2 3 7 9 10 12 16 18
20 21 20 18 19 19 18 17 16 15 14 15 16 16 12 9 8 7 5 5 4 4 6 7 9 10 8 8 8 6 5 4 3 3 4 6 10 12 11 10 10 9 6 3 1 1 2 2 2 3 3 2 3 2 1 2 2 3 2 3 7 5 2 1 3 2 2 3 3 3 3 3 0 1 4 7 7 4 2 3 5 7 12 16 17 18 20
20 20 20 19 19 18 18 19 18 15 14 14 16 16 13 11 12 10 7 5 4 8 11 9 10 10 6 5 6 5 5 4 4 3 3 2 4 5 1 3 5 8 9 5 1 0 2 2 1 1 1 1 2 3 2 3 4 2 2 4 6 4 2 1 3 3 3 3 3 2 2 2 1 2 4 8 8 4 4 5 4 8 18 23 23 23 23
20 20 20 19 19 18 18 19 18 16 14 14 16 16 14 15 14 11 10 8 4 7 9 6 6 9 7 5 5 4 4 4 3 3 3 3 3 2 5 7 6 8 9 5 1 1 2 1 1 2 1 1 1 1 3 4 4 4 3 4 3 2 1 1 3 4 4 4 3 2 2 1 2 3 8 12 8 3 5 3 0 8 22 28 30 31 30
20 20 20 19 18 17 17 17 16 15 15 15 17 18 17 16 15 11 11 9 5 9 16 14 11 13 10 9 11 9 8 8 5 2 2 2 1 5 8 6 3 5 6 3 2 2 2 1 1 1 1 2 2 1 2 3 2 3 4 4 3 3 2 1 2 4 3 2 2 1 2 2 5 7 10 12 7 3 2 2 2 10 23 27 31 34 33
21 21 19 18 16 15 16 16 15 15 15 15 17 19 18 18 16 13 14 12 11 17 21 15 9 11 11 11 13 11 10 9 6 4 3 2 2 6 6 4 3 3 2 3 3 2 3 2 1 1 1 1 1 1 1 1 0 2 3 3 3 5 5 3 3 3 2 1 2 1 1 4 12 13 7 6 4 1 3 5 2 13 23 26 29 32 33
21 20 18 17 16 15 15 15 14 14 15 15 18 20 20 20 18 16 16 15 14 16 15 14 15 17 16 15 15 14 14 13 9 6 4 3 3 3 2 2 5 4 3 4 3 1 2 2 1 1 1 1 1 1 2 2 2 1 2 1 2 4 4 3 3 3 2 3 4 2 1 4 11 9 2 2 4 3 7 3 6 15 22 24 26 29 33
21 19 17 16 15 15 15 14 13 14 15 16 18 19 21 22 21 17 15 15 17 17 15 16 17 14 10 11 12 11 13 14 12 12 10 6 4 6 4 0 3 6 5 4 2 1 1 2 1 1 1 1 1 1 1 2 3 2 1 2 2 1 1 2 2 2 1 1 2 1 1 2 7 5 4 3 5 5 5 2 8 14 21 24 24 28 31
19 18 16 16 15 15 15 14 13 13 14 16 18 20 22 23 22 19 14 14 19 20 15 11 10 9 10 8 5 5 6 8 10 14 16 11 5 6 8 6 4 5 6 6 3 1 1 2 1 1 1 2 2 2 1 1 2 2 1 1 1 2 2 2 1 1 1 2 1 1 2 2 5 6 5 5 4 5 4 6 9 14 20 24 26 29 30
18 17 15 15 15 15 15 13 13 13 14 16 18 20 22 23 22 19 14 11 13 14 11 8 8 10 13 10 6 6 4 6 8 9 14 16 10 5 7 11 11 6 4 6 6 3 2 1 1 1 2 2 2 3 2 1 1 2 2 1 1 1 2 2 2 3 4 2 0 1 2 2 3 6 5 4 5 8 7 9 13 16 20 24 28 30 30
18 16 14 14 15 16 14 13 13 13 14 16 17 19 22 22 19 16 13 10 9 7 6 7 7 9 13 10 8 10 9 2 6 9 14 19 17 9 3 7 10 7 5 8 9 8 5 2 0 2 2 2 2 2 1 1 1 2 2 1 1 1 1 1 2 3 2 1 1 1 3 3 2 5 5 4 6 8 9 12 16 20 23 26 28 30 32
17 15 14 14 15 15 14 13 13 13 14 16 17 19 21 18 13 12 12 11 9 4 3 5 7 10 14 13 12 11 10 5 0 6 11 14 16 14 10 9 11 9 11 10 8 9 5 1 1 1 1 2 3 1 0 1 2 2 1 1 1 1 1 2 3 3 1 0 1 1 1 2 3 6 7 6 7 9 11 14 18 23 26 28 29 31 34
15 14 14 14 14 14 14 13 13 14 15 15 16 19 18 11 8 10 11 10 8 3 1 5 12 14 14 13 15 14 8 6 6 2 3 5 11 16 18 19 18 15 13 8 5 6 3 1 1 1 1 2 2 1 1 1 2 3 3 2 2 1 2 3 2 2 1 0 4 6 2 1 4 9 10 9 9 12 15 17 21 25 28 30 31 32 33
15 14 13 14 14 14 14 13 13 14 14 14 16 17 12 5 6 10 10 9 8 4 4 12 17 14 11 11 15 15 9 8 9 8 5 2 5 10 14 17 16 12 8 4 2 1 1 1 1 1 1 2 2 2 1 1 2 3 2 3 4 1 1 1 1 1 1 1 6 9 1 2 6 13 13 12 13 15 19 21 23 26 29 32 34 34 34
14 13 13 13 14 14 13 13 14 14 14 15 16 14 8 3 5 9 11 12 12 10 11 13 13 9 7 9 14 15 11 10 11 10 9 7 4 5 7 10 10 8 4 2 3 2 1 1 2 2 1 0 1 1 1 1 2 2 1 4 5 4 4 3 0 2 2 3 11 9 2 0 9 14 13 13 15 17 20 23 25 27 29 32 35 35 35
14 13 13 13 13 13 13 12 13 13 13 14 15 12 5 2 6 11 14 15 15 15 11 7 5 6 8 10 14 16 11 9 9 9 10 11 11 9 8 9 10 9 6 5 4 1 0 1 2 3 3 2 1 2 2 1 2 2 2 6 6 2 4 5 2 2 2 9 11 7 3 8 13 12 11 13 15 17 20 23 25 28 30 32 34 35 35
15 13 13 14 13 13 12 12 12 12 12 12 13 10 4 3 8 14 16 16 17 16 10 5 6 9 9 7 12 16 13 9 8 9 9 10 11 12 12 12 11 10 10 8 5 1 1 1 2 2 3 4 3 2 2 2 2 2 4 6 5 2 3 3 1 2 7 11 12 10 11 14 13 10 10 12 14 15 19 21 25 28 30 31 33 34 36
15 13 13 13 12 12 11 11 11 11 11 11 12 10 8 8 11 13 14 17 18 15 9 4 4 5 4 5 11 16 13 9 9 11 10 9 8 8 9 11 12 10 8 7 5 2 1 2 2 2 3 5 4 3 2 2 2 1 5 6 3 3 5 6 7 9 12 14 13 11 10 11 10 8 9 12 14 15 18 22 26 28 29 30 32 33 35
15 14 13 12 12 11 10 10 10 10 10 10 11 10 9 10 9 11 15 19 17 10 5 3 2 2 4 6 10 15 14 9 9 11 11 11 9 6 5 7 9 10 9 6 3 2 4 3 2 2 4 6 4 3 3 3 2 1 3 3 3 7 10 12 14 14 13 11 5 2 6 10 9 8 10 13 14 16 20 24 27 29 29 30 32 33 34
15 14 13 11 10 9 9 9 8 9 9 10 10 8 8 9 11 15 18 17 12 6 3 2 1 2 5 5 4 12 15 11 7 8 8 10 12 9 5 4 5 6 8 7 4 2 3 4 3 2 2 4 3 2 3 2 1 0 1 4 8 13 15 15 12 8 5 3 3 5 9 13 12 11 12 14 15 19 23 25 28 29 31 31 32 33 34
15 14 12 10 8 7 7 7 8 8 9 8 7 7 9 13 15 16 14 9 5 2 2 1 1 2 4 3 2 10 16 11 5 6 6 7 10 10 7 5 4 4 5 6 4 2 3 4 3 2 1 2 2 2 2 2 3 3 5 8 12 13 12 10 8 6 6 8 11 13 14 14 15 15 15 16 19 22 24 26 28 31 32 33 34 34 36
14 12 10 7 5 5 6 7 7 7 6 5 4 8 14 16 15 11 6 3 2 2 2 2 1 1 2 1 2 9 13 9 6 7 6 4 6 9 7 4 3 2 4 4 2 1 4 6 4 1 1 1 1 1 1 5 7 7 8 11 11 8 6 7 8 10 12 13 15 15 15 15 16 17 17 18 21 24 26 27 29 31 32 32 32 34 35
13 11 8 5 3 4 6 7 6 6 5 5 7 12 14 13 9 6 3 2 2 3 3 2 2 2 1 2 4 8 10 8 6 7 6 4 4 5 6 4 1 1 3 3 2 3 5 5 3 1 1 1 1 1 2 7 10 10 12 12 8 5 7 10 11 13 16 15 14 15 16 16 16 17 18 20 21 23 26 28 29 31 32 32 32 33 35
11 8 5 3 2 3 3 4 5 5 6 8 10 11 9 6 4 3 2 1 1 3 3 3 2 3 3 2 4 7 7 6 4 3 4 5 4 3 4 4 2 2 1 1 2 5 4 3 3 2 1 1 2 1 4 7 9 11 10 8 6 7 11 11 9 11 14 13 12 15 17 16 15 17 19 21 22 24 26 28 28 30 33 33 33 34 35
11 7 4 2 2 2 2 3 5 7 8 8 7 5 4 3 2 2 1 1 1 2 2 3 3 4 3 2 4 7 6 4 3 1 2 4 4 2 2 2 2 2 1 1 4 6 3 1 2 1 1 1 0 3 6 7 9 10 9 7 6 8 11 11 7 5 4 4 10 17 17 15 16 18 21 22 22 23 25 27 28 30 33 34 34 35 35
9 6 3 2 2 3 4 6 9 9 8 5 3 3 2 2 2 1 1 1 1 1 1 2 4 5 4 3 3 4 6 5 3 1 1 3 3 2 1 1 1 2 1 0 4 5 2 1 1 1 1 1 3 7 8 8 10 11 10 8 6 7 10 10 6 4 3 2 10 16 15 13 15 19 22 23 23 23 25 27 28 30 32 33 32 33 34
11 9 7 6 7 6 6 6 8 7 4 2 2 2 1 1 1 1 0 1 0 1 2 5 4 3 4 4 3 3 5 6 4 2 1 2 3 2 1 0 1 1 1 1 3 3 2 1 1 1 0 3 9 11 10 10 11 11 10 10 7 6 9 7 4 6 4 7 11 14 14 13 14 18 21 23 23 24 25 27 28 29 30 30 31 32 33
15 14 12 11 9 6 5 4 4 3 2 1 1 1 1 0 1 1 0 1 0 1 3 5 5 5 6 7 5 4 4 5 5 3 1 2 3 2 1 0 1 1 1 2 2 1 1 1 1 2 1 7 13 13 11 13 13 12 12 11 8 6 7 6 3 5 6 8 10 12 13 14 15 17 19 22 23 23 24 26 27 28 29 29 31 32 33
13 12 11 9 6 4 3 2 2 2 0 1 1 0 1 1 1 1 1 0 1 2 4 7 8 8 7 5 4 4 4 4 4 2 1 2 3 2 2 2 2 1 1 1 1 1 1 0 1 1 1 10 17 15 13 14 14 14 13 11 8 7 7 5 4 6 8 8 9 11 12 14 15 16 17 19 21 22 23 24 25 26 27 29 31 32 33
10 8 6 5 3 1 1 0 1 1 0 0 1 1 0 1 1 0 1 1 1 3 5 8 9 6 4 4 4 3 2 2 3 2 1 2 2 1 2 1 1 1 1 1 0 1 1 2 2 2 3 12 18 17 15 15 15 15 14 11 8 8 7 5 5 7 8 9 10 10 12 14 15 15 16 17 18 20 22 22 22 23 25 27 29 30 31
8 5 3 2 1 0 1 0 1 0 1 1 0 1 1 1 1 1 1 1 3 6 10 12 11 6 4 5 4 2 1 2 2 1 1 1 1 1 1 1 0 1 1 1 0 1 2 1 1 2 7 15 19 18 17 16 15 14 13 10 9 8 7 5 6 8 9 10 11 11 13 15 16 15 16 16 15 16 19 20 21 22 23 25 26 27 29
6 4 3 1 1 0 1 0 1 1 0 1 0 1 1 1 1 1 2 4 7 10 14 15 11 6 4 4 2 1 2 3 1 0 1 1 1 0 0 1 0 2 2 1 1 2 1 1 2 3 10 18 21 20 18 16 15 13 12 11 10 9 7 6 6 7 9 10 11 12 14 15 15 15 16 15 14 14 16 17 19 20 21 22 24 26 28
4 4 3 1 1 1 0 0 0 1 1 1 1 3 3 1 2 3 6 8 10 13 14 12 6 3 3 2 1 1 2 3 1 1 2 1 1 0 1 1 0 1 1 0 2 2 2 2 5 2 11 20 23 21 18 16 14 13 12 12 11 9 8 8 8 8 9 9 11 12 14 15 15 15 16 15 14 14 14 15 17 17 18 19 21 24 26
3 3 2 1 1 1 0 1 1 2 2 2 3 6 6 4 3 8 12 13 14 15 12 7 1 2 1 2 1 0 1 2 1 1 1 1 1 1 2 2 1 1 1 1 2 2 1 6 7 2 15 23 23 21 18 16 14 13 13 13 12 10 9 9 9 9 9 10 11 13 14 14 14 15 15 15 15 14 14 14 16 16 17 17 20 22 25
3 2 1 1 1 2 2 3 2 2 4 4 5 8 9 7 8 13 16 16 16 14 8 3 1 1 1 1 1 0 1 1 1 0 1 2 1 0 1 1 1 1 1 1 2 3 6 8 3 8 19 23 22 20 17 16 14 14 14 14 12 11 11 11 10 10 10 10 11 13 14 14 14 14 14 14 15 15 14 14 15 16 16 17 20 23 25
2 2 2 2 2 1 3 2 1 1 5 6 7 9 11 11 11 14 17 17 16 11 4 2 3 2 1 1 2 1 0 0 0 1 1 1 1 1 1 0 1 1 1 2 4 6 8 5 4 14 20 22 21 18 16 15 14 14 14 14 12 11 11 11 11 11 11 11 11 13 14 14 14 14 14 14 16 16 15 14 15 15 16 17 19 23 25
2 3 3 3 3 2 3 2 1 1 2 4 5 8 10 10 11 14 16 16 14 9 3 1 2 2 1 1 2 1 1 1 1 1 1 0 2 2 1 1 3 3 3 5 6 6 4 3 9 14 18 21 21 18 16 15 14 14 15 15 13 12 12 12 11 12 12 12 12 13 13 13 13 12 13 14 15 16 16 16 15 16 17 17 18 21 24
2 2 2 3 4 4 3 2 2 2 1 2 5 7 7 8 10 12 13 12 10 7 3 2 1 1 1 1 1 1 1 1 1 0 0 1 2 2 2 3 3 4 6 7 6 5 5 6 8 11 15 19 19 18 16 15 14 13 14 15 14 13 13 13 12 13 13 13 13 13 13 13 13 13 12 13 14 15 16 16 16 17 17 17 17 18 20
Wind_Direction
353 354 355 355 354 356 357 356 357 358 356 352 354 0 4 7 5 6 97 130 135 89 63 72 274 251 296 316 292 276 285 292 308 322 334 357 346 314 293 280 284 52 319 349 355 344 98 171 196 164 190 209 167 171 173 165 163 168 156 161 173 158 145 165 148 125 206 223 36 217 188 170 187 207 181 175 192 193 203 192 136 164 192 178 208 243 161
352 352 353 353 352 355 357 356 356 358 356 350 353 2 5 3 21 66 135 154 158 46 21 21 302 283 290 293 282 266 258 269 283 300 312 338 1 353 307 295 337 10 342 329 355 339 319 168 237 237 201 159 142 164 169 168 169 176 179 169 169 167 168 182 163 146 177 191 166 180 192 188 198 194 178 188 181 137 125 113 141 203 201 192 213 220 148
351 351 350 349 350 353 356 356 356 358 358 354 359 6 1 2 51 102 157 181 194 276 323 322 316 305 292 287 287 272 244 248 254 261 259 222 198 276 267 289 314 321 322 330 339 316 255 141 319 300 204 91 111 161 170 172 172 182 182 167 160 167 183 188 179 169 179 185 181 184 180 176 189 180 182 191 175 159 159 145 185 214 184 181 213 209 125
350 348 346 348 350 354 357 355 356 1 3 2 10 19 14 13 63 102 163 194 224 260 290 303 299 301 304 291 285 272 261 274 258 254 249 223 213 241 259 288 297 279 292 334 348 339 246 215 299 324 193 145 34 154 170 175 177 182 176 160 149 128 191 186 192 185 183 177 157 132 145 162 184 186 185 189 179 169 157 159 199 196 149 186 213 150 136
348 346 344 347 351 356 0 358 358 5 9 10 19 27 29 30 21 48 132 213 239 252 267 270 267 295 323 323 317 315 315 310 278 244 240 226 248 257 245 251 271 276 138 268 273 327 311 213 241 301 252 106 22 120 167 180 184 181 169 156 145 103 201 193 197 189 172 105 103 122 169 185 189 184 182 184 176 167 179 200 188 137 158 208 183 132 158
348 344 342 347 353 359 2 0 0 8 14 17 24 29 28 19 351 353 355 295 244 254 262 242 243 272 292 307 315 305 299 301 291 277 308 273 238 242 245 223 232 250 255 21 347 296 3 160 213 300 356 38 41 99 124 182 189 179 166 160 154 159 188 196 198 175 131 61 106 139 165 179 177 180 183 181 177 181 200 209 161 148 199 217 153 167 186
347 344 343 349 357 0 0 359 359 5 12 16 23 31 30 11 341 322 326 304 272 283 280 239 240 259 252 259 279 281 290 291 274 226 273 307 236 207 241 307 240 237 236 224 347 259 207 80 70 24 23 23 63 118 109 120 183 172 164 167 177 191 181 188 194 158 92 43 22 131 157 146 134 191 200 190 185 192 206 206 167 180 217 153 149 184 198
346 344 345 351 358 358 357 358 356 359 6 12 22 30 22 3 336 317 315 295 271 277 270 237 250 257 235 251 260 261 276 281 289 246 211 282 269 183 215 331 5 345 206 199 233 262 294 49 49 23 15 25 32 83 113 112 149 159 165 177 207 212 186 169 179 155 87 36 15 103 164 161 152 196 246 213 196 199 208 203 177 193 214 137 150 186 211
345 344 346 352 359 357 355 358 359 358 3 9 15 16 3 353 344 322 309 296 279 278 238 208 248 257 229 243 250 251 263 280 325 315 234 234 250 220 252 332 345 3 146 185 236 263 257 247 265 312 322 321 340 343 325 134 145 156 166 172 184 192 172 108 169 172 134 87 230 169 145 126 157 205 215 204 197 200 209 202 181 192 185 138 152 194 210
344 345 347 352 358 357 354 358 0 358 1 7 6 358 352 350 350 339 312 287 286 286 260 211 234 252 225 226 242 259 273 299 332 324 271 245 247 239 268 332 338 341 29 164 256 286 282 271 279 298 296 275 266 265 270 271 124 148 163 153 147 164 150 141 182 181 156 184 232 197 142 138 220 218 185 194 201 196 200 214 217 202 175 152 184 220 182
344 345 348 352 356 356 355 357 358 355 357 3 359 349 348 349 346 338 315 276 270 273 284 234 217 259 279 260 272 278 280 295 307 288 278 296 282 254 325 350 346 315 315 3 351 328 317 303 297 307 303 251 221 233 251 303 30 5 173 146 139 156 152 155 189 180 173 204 248 223 195 210 223 145 164 199 216 196 194 212 232 213 189 165 207 136 135
344 346 350 351 349 350 352 354 355 354 354 356 353 343 342 346 340 330 313 283 284 285 289 268 255 282 292 286 285 279 274 279 278 263 264 275 281 286 300 318 300 292 342 358 348 338 332 324 323 328 313 201 141 114 109 109 9 318 276 163 155 153 146 136 135 143 152 172 213 209 207 205 151 160 195 206 215 205 190 265 267 230 240 266 185 150 152
342 346 349 345 343 348 356 357 353 352 352 354 353 341 338 346 340 320 302 285 279 268 282 284 276 278 283 279 270 266 267 266 262 257 258 263 272 275 265 235 229 251 332 344 343 346 352 344 343 330 321 5 82 100 101 109 49 313 294 202 164 153 145 123 91 103 140 158 193 205 204 114 133 163 164 155 173 182 171 226 239 215 219 228 193 168 163
342 343 341 340 343 350 359 359 352 347 348 351 351 345 342 346 338 318 301 273 277 283 288 291 287 287 293 288 270 263 266 262 255 251 248 246 255 260 253 246 247 257 287 319 338 5 83 82 40 165 283 15 95 131 98 102 89 344 297 212 152 149 154 136 113 128 179 159 178 222 296 198 162 173 174 162 166 177 178 219 217 191 203 216 179 158 158
340 339 333 336 346 351 354 355 348 343 345 348 349 350 348 340 332 326 299 278 294 291 267 252 288 320 316 301 287 276 273 268 257 253 247 241 249 260 262 261 261 263 272 287 326 54 103 135 160 169 165 156 167 156 110 138 83 2 324 159 122 115 161 164 168 203 184 144 168 211 247 227 182 168 177 159 146 164 187 258 211 180 190 197 175 157 153
334 335 332 335 345 348 348 350 348 344 346 347 345 347 348 333 323 323 309 297 296 283 274 275 286 296 299 292 286 275 267 272 262 266 268 248 251 267 275 268 253 239 221 190 132 100 128 142 184 184 167 168 163 136 130 163 122 32 12 115 113 87 42 126 159 163 158 172 184 188 213 233 345 76 159 149 137 141 185 237 219 178 173 182 176 161 153
330 330 332 336 341 342 343 346 349 348 350 349 341 339 344 338 326 317 307 300 270 271 286 292 282 278 277 279 277 253 240 252 247 259 289 276 258 271 273 129 169 189 184 166 117 138 147 122 147 191 190 200 154 129 137 154 142 128 92 105 113 104 62 129 150 149 163 177 178 196 231 222 134 122 161 157 141 131 180 213 215 161 163 173 175 166 160
333 331 332 335 336 338 339 342 347 348 350 352 343 338 342 342 334 317 299 298 273 269 295 309 277 270 266 260 269 255 235 249 251 248 267 282 280 217 143 123 130 171 180 170 129 167 156 141 218 201 153 168 204 154 150 152 156 160 136 104 105 111 83 168 161 150 166 179 180 229 253 188 123 131 156 158 150 154 192 202 342 162 167 171 173 172 169
335 334 335 334 334 337 339 342 348 348 348 351 344 339 341 341 338 326 304 291 255 281 308 312 283 272 271 258 258 256 249 258 269 267 267 275 176 147 142 131 125 160 171 157 126 176 195 208 232 214 149 168 203 174 142 153 154 147 138 128 133 145 128 136 151 140 151 181 171 223 268 159 127 130 153 167 167 167 202 316 332 183 177 171 170 173 173
335 334 335 334 333 335 338 343 348 344 345 349 341 336 339 342 342 338 325 306 279 290 311 321 303 292 289 265 253 251 249 253 246 221 238 270 160 138 138 156 154 116 132 171 161 173 211 200 179 204 185 164 182 166 134 157 138 165 177 166 154 165 166 164 162 146 115 110 138 164 284 158 142 135 143 191 198 75 337 323 234 181 180 175 172 173 173
334 334 335 335 333 333 337 343 344 340 341 344 338 332 335 340 343 340 332 318 291 286 309 327 317 306 298 282 273 265 252 244 231 214 243 279 226 181 147 174 182 159 148 180 177 191 226 194 139 179 165 104 199 192 161 159 159 211 249 222 151 177 179 170 187 190 165 155 166 172 358 156 161 154 119 221 220 320 340 332 162 170 177 177 174 172 172
334 334 335 334 331 332 336 339 339 338 336 337 336 331 331 337 343 341 331 316 296 289 305 324 320 314 313 303 291 277 261 252 242 234 242 262 249 232 242 250 178 183 182 185 168 108 190 191 137 144 173 158 176 172 132 164 164 158 237 225 194 195 168 147 178 198 189 193 203 223 358 192 196 214 335 323 242 281 316 228 176 174 175 175 172 169 170
333 333 334 333 330 332 335 335 335 334 333 333 334 330 331 338 343 339 330 319 312 310 318 331 335 349 6 357 324 297 272 248 235 231 230 234 247 242 235 231 217 200 203 215 223 86 132 188 144 134 204 204 168 149 115 175 174 154 162 217 315 27 66 94 115 144 208 258 312 334 301 268 220 227 286 304 233 214 228 212 191 178 174 174 172 170 170
332 332 333 333 331 332 334 333 331 329 329 331 331 330 334 340 341 338 333 325 322 324 324 318 324 354 12 17 15 360 323 228 217 222 217 217 222 234 236 232 228 220 216 234 241 229 178 171 135 169 206 216 189 173 164 158 179 171 153 125 356 94 104 83 100 147 177 202 32 9 292 298 230 219 250 271 206 189 200 204 188 175 173 173 171 171 170
332 332 332 331 331 332 333 330 327 325 326 329 331 333 337 340 340 340 339 331 324 326 318 304 317 355 5 9 16 7 354 292 209 209 212 217 220 218 202 197 198 213 286 292 264 232 196 148 160 192 199 228 228 210 199 164 169 187 180 143 133 153 139 130 149 158 174 215 16 340 318 317 241 216 218 223 207 195 196 195 183 173 169 170 171 171 168
332 332 332 330 330 332 330 326 322 320 323 328 334 337 337 341 347 350 350 343 326 305 276 285 313 353 5 17 28 17 2 9 93 212 218 225 229 228 226 217 218 251 298 306 262 219 196 126 129 174 179 226 221 215 352 123 128 133 130 92 27 319 184 163 152 139 135 276 182 179 320 315 244 225 216 208 200 191 188 187 179 172 167 166 167 169 168
331 331 330 328 329 329 327 322 317 316 320 329 338 339 337 344 1 359 1 360 344 332 214 278 307 338 5 25 32 28 30 51 54 82 184 217 230 231 235 242 251 270 288 290 239 208 189 103 107 148 141 174 168 77 45 119 106 104 98 49 349 315 150 147 150 143 131 279 176 170 168 322 202 202 202 193 186 184 181 177 173 172 170 167 164 164 167
329 328 327 326 327 326 323 318 312 312 319 330 340 343 342 352 7 0 5 8 354 335 277 282 300 327 2 24 30 34 48 63 62 62 65 71 216 220 230 241 248 257 263 256 213 164 117 96 132 135 137 164 131 80 117 158 92 103 92 19 349 316 176 168 135 125 9 347 166 168 152 16 167 178 183 180 177 179 178 174 171 171 172 170 167 163 163
326 325 324 323 324 323 320 313 307 308 319 332 341 345 343 330 340 353 1 1 351 335 313 303 307 321 338 1 22 33 44 57 64 64 58 62 114 175 211 221 214 203 193 141 90 75 54 106 124 95 40 245 183 124 124 115 93 99 23 341 330 292 248 241 302 359 346 161 166 177 253 191 162 166 169 169 172 177 179 175 172 170 170 171 171 168 166
325 323 322 320 320 319 314 306 301 303 316 332 340 342 340 313 328 341 348 350 347 343 334 319 312 321 326 351 17 28 38 55 64 67 67 70 82 96 115 144 163 165 141 98 75 50 336 78 99 86 56 46 106 128 111 109 113 93 356 338 337 309 216 214 255 313 150 153 161 174 168 146 148 150 156 164 172 179 180 175 172 171 169 169 171 171 169
322 320 319 318 316 313 307 296 292 297 310 326 334 334 329 307 320 328 335 340 341 343 339 297 286 315 333 357 13 17 26 46 57 61 66 68 75 88 100 112 127 137 131 116 105 128 248 351 47 80 53 38 63 109 109 115 128 82 6 351 359 52 151 181 197 152 147 147 145 135 129 134 137 137 150 164 172 180 180 176 172 170 167 168 171 172 171
320 318 316 314 311 307 297 285 282 290 302 316 323 319 308 302 309 317 326 332 334 336 337 322 304 318 331 345 0 9 19 33 44 49 53 55 66 83 87 86 92 101 110 120 122 106 355 346 28 61 33 32 63 100 80 73 111 60 356 351 19 94 118 128 127 130 137 138 130 118 124 140 144 142 154 164 171 177 178 172 169 168 167 167 170 170 169
319 318 315 311 306 299 285 276 277 284 296 309 315 313 307 305 311 320 322 323 324 323 327 338 332 299 302 319 352 12 17 18 28 36 38 37 41 55 71 73 73 66 58 66 91 49 12 9 18 32 31 36 61 105 83 51 43 338 340 359 101 120 125 128 129 132 138 145 149 159 164 159 149 142 151 158 164 171 172 168 166 166 165 164 162 161 162
317 317 314 308 301 288 274 270 273 279 292 303 306 306 303 303 314 320 316 312 309 305 319 339 308 290 309 305 344 12 10 7 14 23 24 27 30 33 41 49 51 49 44 46 58 51 24 13 352 337 12 23 33 85 92 59 1 15 87 113 125 128 128 126 126 131 140 153 175 171 157 147 138 137 146 152 158 164 165 165 165 163 160 158 157 157 158
316 317 313 305 293 275 265 269 273 278 290 296 294 296 298 302 311 316 311 303 301 302 334 348 233 296 331 318 340 2 0 1 9 7 1 10 20 25 33 40 41 40 31 31 46 62 11 356 340 312 335 357 15 69 114 164 166 143 135 135 133 134 133 125 113 101 97 108 121 130 135 138 137 140 146 151 156 159 159 160 163 161 155 153 156 158 160
319 318 312 301 285 262 258 269 277 279 281 273 274 295 301 305 315 319 305 276 274 282 306 323 267 261 337 285 288 340 351 359 5 2 1 3 10 18 30 44 51 36 21 28 53 28 352 351 349 346 17 26 34 35 182 177 166 156 153 150 143 142 145 132 119 115 116 120 125 128 133 138 139 142 148 151 154 157 157 157 159 158 154 151 154 157 159
321 319 310 293 269 257 262 268 271 271 269 273 290 302 304 306 315 320 298 257 258 261 272 293 288 259 245 247 295 327 345 357 358 2 15 12 351 5 27 40 45 346 12 41 49 344 344 355 9 37 57 34 350 303 207 181 170 161 156 152 149 150 144 134 129 127 124 122 125 131 136 140 139 141 148 151 152 156 157 156 157 158 155 152 153 156 159
327 324 309 284 250 244 260 263 255 261 280 294 299 301 302 300 298 293 275 208 215 250 254 252 267 265 231 239 319 335 347 357 356 7 24 11 348 359 31 37 25 340 356 55 359 342 347 18 40 58 82 335 329 172 168 172 169 161 150 140 137 146 141 133 131 131 126 126 139 145 143 142 142 145 151 154 155 157 159 159 160 162 161 160 160 161 163
330 322 296 263 221 207 248 283 282 287 297 300 293 283 277 281 289 293 290 218 231 247 235 234 268 284 252 244 326 342 347 350 349 7 25 15 12 21 25 24 18 11 42 91 0 354 3 42 25 50 134 311 311 151 156 164 165 158 143 122 122 145 143 128 114 113 116 152 175 168 158 151 153 154 155 156 157 159 161 163 164 165 165 165 165 166 167
341 338 318 281 255 243 260 281 291 296 298 290 273 263 259 268 275 274 30 357 278 198 221 275 294 303 290 265 292 335 345 345 338 329 19 19 11 5 13 47 19 10 49 42 357 360 14 27 353 32 103 162 178 167 161 161 160 155 143 125 123 149 150 129 90 47 39 157 179 176 167 159 159 160 159 159 159 159 161 165 168 168 168 169 171 173 174
355 352 338 317 301 288 281 281 285 286 276 237 240 274 261 238 269 278 30 21 342 227 313 322 317 315 315 299 271 292 332 341 326 289 307 14 11 9 28 17 351 18 72 348 358 22 64 57 346 339 338 175 172 169 163 161 163 161 152 138 129 149 161 143 69 40 78 135 164 173 169 160 161 164 165 166 166 164 165 167 170 171 172 173 176 178 179
339 330 322 315 312 312 310 294 270 257 240 191 207 305 296 253 309 328 51 73 349 324 338 337 324 307 310 309 286 273 311 337 331 305 303 15 11 20 67 347 358 59 69 335 337 40 58 14 313 310 255 166 167 168 167 164 162 158 150 144 139 154 172 165 106 83 112 139 160 171 169 163 162 166 169 170 171 171 171 172 173 173 175 176 177 178 180
327 320 318 317 321 334 341 305 220 208 274 60 119 287 323 1 23 1 8 14 330 332 339 337 331 322 317 316 303 283 294 322 333 338 39 25 359 21 77 42 14 42 29 333 345 50 24 300 239 304 168 163 167 170 169 165 162 156 151 153 161 173 177 171 143 129 134 146 158 167 168 165 163 165 170 174 174 173 174 177 178 178 178 179 179 180 181
328 324 324 321 320 348 63 195 197 194 240 45 148 186 245 89 106 19 338 348 335 329 331 333 332 326 317 323 330 312 287 311 343 10 46 24 9 41 73 32 352 344 337 330 353 19 321 245 240 286 177 166 169 172 170 168 166 163 160 164 177 180 175 167 155 148 147 152 160 167 170 168 164 163 168 174 176 175 175 177 180 181 181 181 181 182 182
337 339 346 343 336 118 155 205 334 177 213 250 193 157 153 144 159 207 324 320 305 311 323 327 323 303 284 310 329 328 309 334 354 14 2 20 48 59 35 2 35 41 9 356 17 358 343 329 295 248 194 177 172 173 172 170 169 169 167 167 174 177 171 161 156 156 154 155 160 168 173 171 166 163 165 170 177 179 176 175 178 181 181 182 182 182 181
347 355 8 7 313 273 155 141 7 43 45 272 215 147 130 139 146 95 346 326 314 316 324 327 318 290 277 310 332 340 336 345 3 34 1 42 85 42 311 198 55 21 34 43 345 316 301 338 336 253 200 181 172 171 172 171 170 172 169 165 169 175 172 159 155 157 156 156 159 166 173 175 171 166 164 165 170 176 176 175 176 178 179 181 183 182 181
348 351 8 39 275 291 17 111 171 355 1 354 14 21 22 74 98 36 1 344 333 331 332 330 315 270 273 324 340 342 4 23 54 351 347 47 145 353 14 81 26 24 93 342 310 274 233 316 337 269 188 177 171 170 172 172 173 174 169 165 169 174 169 160 158 159 157 154 155 162 171 176 173 168 165 163 164 170 175 176 176 177 178 179 182 182 181
338 331 346 49 204 224 47 20 16 41 57 61 45 38 45 76 60 17 7 0 352 345 340 337 315 227 276 354 20 293 16 39 62 341 355 61 107 1 15 21 344 288 208 251 281 241 272 331 335 195 171 171 171 170 170 171 174 175 171 168 170 170 163 159 160 160 156 154 154 158 166 171 169 166 165 163 163 168 176 179 178 178 178 179 180 181 181
321 311 298 290 247 246 301 326 336 42 64 65 53 42 43 46 29 13 9 6 1 355 352 4 32 307 293 4 29 45 8 25 47 62 29 38 57 108 72 47 340 326 286 227 233 272 315 330 337 160 165 169 170 170 170 171 174 173 170 168 166 161 157 158 160 160 157 154 151 150 154 160 162 163 166 166 165 166 171 175 176 177 179 180 179 178 178
278 269 255 242 242 287 339 346 333 50 42 42 39 30 26 23 17 12 9 6 3 4 18 48 20 354 296 25 31 43 50 3 103 94 38 33 134 136 98 263 244 256 269 257 275 302 320 334 144 158 165 169 170 169 169 169 168 166 165 164 160 154 153 157 161 160 158 154 150 148 149 152 155 157 159 161 162 162 163 167 172 175 177 180 181 178 177
248 250 251 242 241 277 332 351 280 289 353 19 21 14 12 13 11 6 3 3 6 14 34 35 351 346 50 60 36 17 317 332 65 83 20 257 167 136 107 225 213 231 282 306 321 337 0 113 149 161 168 170 170 170 169 165 160 159 162 162 157 151 153 158 161 160 158 156 155 154 152 151 151 152 152 155 160 162 164 168 171 172 173 176 179 180 179
229 244 276 276 266 269 283 292 283 281 314 357 355 355 359 4 2 358 359 6 17 20 4 322 324 32 65 54 31 284 299 331 19 82 245 222 177 176 205 228 249 288 305 320 347 27 76 122 147 163 169 171 171 171 169 165 161 160 162 161 156 151 156 161 161 160 161 164 165 164 162 160 160 160 159 159 163 167 170 171 172 172 172 174 178 182 183